Flag for U.S.A. Weather past 2 weeks in Lakeland, Florida, U.S.A.

Now
66 °F

Clear.


Feels Like: 66 °F
Forecast: 64 / 82 °F
Wind: No wind

Location: Lakeland Regional

Current Time: Mar 3, 2015 at 12:41:21 AM

Latest Report: Mar 3, 2015 at 12:15 AM


Visibility: 10 mi

Pressure: 30.23 "Hg

Humidity: 94%

Dew point: 64 °F

Location of LakelandLocation

Historic Weather in Lakeland — Graph

°F

Lakeland temperature yesterday

Maximum temperature yesterday: 82 °F (at 3:50 PM)
Minimum temperature yesterday: 64 °F (at 1:15 AM)
Average temperature yesterday: 70 °F

Past Weeks' High & Low Weather Summary

 TemperatureHumidityPressure
High82 °F (Mar 1, 2:50 PM)100% (Feb 17, 9:55 PM)30.45 "Hg (Feb 17, 9:55 PM)
Low27 °F (Feb 20, 5:50 AM)23% (Feb 20, 2:50 PM)29.71 "Hg (Feb 26, 4:15 AM)
Average60 °F80%30.15 "Hg
* Reported Feb 15 11:15 PM — Mar 2 11:15 PM, Lakeland, Weather by CustomWeather, © 2015

Note: Actual official high and low records may vary slightly from our data, if they occured in-between our weather recording intervals... More about our weather records

Advertising

Lakeland weather history for previous 24 hours

 ConditionsComfort  
Time TempWeatherWind HumidityBarometerVisibility
11:15 PM
Mon, Mar 2
66 °FClear.No wind94%30.24 "Hg10 mi
10:55 PM68 °FClear.No wind88%30.25 "Hg10 mi
10:35 PM70 °FClear.5 mph83%30.24 "Hg10 mi
9:55 PM70 °FPassing clouds.6 mph83%30.24 "Hg10 mi
9:35 PM70 °FPassing clouds.6 mph83%30.24 "Hg10 mi
9:15 PM70 °FClear.8 mph83%30.24 "Hg10 mi
8:50 PM72 °FClear.8 mph83%30.24 "Hg10 mi
7:50 PM73 °FClear.3 mph74%30.21 "Hg10 mi
6:50 PM75 °FPassing clouds.5 mph69%30.21 "Hg10 mi
5:50 PM81 °FScattered clouds.8 mph58%30.20 "Hg10 mi
4:50 PM82 °FScattered clouds.7 mph55%30.20 "Hg10 mi
3:50 PM82 °FScattered clouds.No wind51%30.21 "Hg10 mi
2:50 PM79 °FScattered clouds.No wind61%30.22 "Hg10 mi
1:50 PM79 °FPartly sunny.5 mph58%30.25 "Hg10 mi
12:50 PM77 °FPartly sunny.No wind65%30.27 "Hg7 mi
11:50 AM75 °FPartly sunny.5 mph78%30.30 "Hg7 mi
10:50 AM72 °FLow clouds.6 mph88%30.31 "Hg7 mi
9:50 AM70 °FLow clouds.5 mph94%30.32 "Hg5 mi
8:50 AM68 °FFog.No wind94%30.31 "Hg1 mi
7:50 AM66 °FFog.No wind100%30.31 "Hg0 mi
6:50 AM66 °FFog.No wind100%30.30 "Hg1 mi
5:50 AM66 °FFog.3 mph100%30.29 "Hg0 mi
4:35 AM64 °FFog.No wind100%30.27 "Hg1 mi
4:15 AM64 °FFog.3 mph100%30.28 "Hg3 mi
3:55 AM66 °FFog.No wind94%30.28 "Hg5 mi
3:35 AM66 °FFog.No wind94%30.28 "Hg5 mi
3:15 AM66 °FFog.5 mph94%30.28 "Hg5 mi
2:55 AM66 °FFog.3 mph94%30.28 "Hg5 mi
2:15 AM66 °FMostly cloudy.No wind94%30.29 "Hg7 mi
1:55 AM64 °FPassing clouds.3 mph100%30.30 "Hg7 mi
1:35 AM64 °FPassing clouds.3 mph100%30.30 "Hg7 mi
1:15 AM64 °FClear.3 mph100%30.31 "Hg7 mi
12:55 AM66 °FClear.No wind94%30.30 "Hg10 mi
12:35 AM66 °FClear.No wind94%30.31 "Hg10 mi
12:15 AM66 °FClear.No wind94%30.31 "Hg10 mi
Weather by CustomWeather, © 2015

See weather overviewHow to use our weather pages